DW4805 Weather Reports


Display with metric or nautical units.
time (UTC)temp
F
wind
direction
speed
MPH
gust
MPH
rain 1hr
in
rain 24hr
in
rain mn
in
humidity
%
barometer
mb
20260906230108 97 118 4.0 11.0 0.00 0.00 0.00 39 1011.2
20260906224604 97 102 4.0 9.0 0.00 0.00 0.00 39 1011.2
20260906223103 97 111 4.0 10.0 0.00 0.00 0.00 40 1011.3
20260906221604 98 89 4.0 9.0 0.00 0.00 0.00 40 1011.3
20260906220104 98 110 8.0 12.0 0.00 0.00 0.00 40 1011.5
20260906214603 98 121 3.0 10.0 0.00 0.00 0.00 40 1011.5
20260906213103 98 61 5.0 10.0 0.00 0.00 0.00 40 1011.7
20260906211607 98 93 7.0 12.0 0.00 0.00 0.00 40 1011.9
20260906210114 97 117 6.0 9.0 0.00 0.00 0.00 40 1012.1
20260906204604 97 115 6.0 15.0 0.00 0.00 0.00 41 1012.3
20260906203105 97 76 3.0 13.0 0.00 0.00 0.00 41 1012.4
20260906201607 97 123 6.0 13.0 0.00 0.00 0.00 41 1012.5
20260906200119 97 67 4.0 14.0 0.00 0.00 0.00 41 1012.7
20260906194620 97 102 6.0 15.0 0.00 0.00 0.00 42 1012.7
20260906193104 97 92 2.0 12.0 0.00 0.00 0.00 42 1012.9
20260906191604 96 136 6.0 12.0 0.00 0.00 0.00 42 1013.1
20260906190145 96 74 7.0 12.0 0.00 0.00 0.00 46 1013.3
20260906184603 95 97 4.0 10.0 0.00 0.00 0.00 45 1013.4
20260906183111 95 106 6.0 13.0 0.00 0.00 0.00 45 1013.5
20260906181601 94 81 4.0 10.0 0.00 0.00 0.00 48 1013.8
20260906174607 94 86 4.0 11.0 0.00 0.00 0.00 47 1014.2
20260906173120 94 82 4.0 10.0 0.00 0.00 0.00 49 1014.6
20260906171603 93 107 6.0 13.0 0.00 0.00 0.00 49 1014.9
20260906170110 93 94 2.0 9.0 0.00 0.00 0.00 50 1015.1
20260906164608 92 107 1.0 6.0 0.00 0.00 0.00 52 1015.2
20260906163106 92 111 2.0 7.0 0.00 0.00 0.00 53 1015.2
20260906161600 91 341 3.0 8.0 0.00 0.00 0.00 57 1015.2
20260906154615 90 88 1.0 7.0 0.00 0.00 0.00 60 1015.2
20260906153104 88 93 4.0 7.0 0.00 0.00 0.00 64 1015.1
20260906151610 88 96 1.0 4.0 0.00 0.00 0.00 64 1015.0
20260906144603 84 129 2.0 6.0 0.00 0.00 0.00 70 1014.8
20260906143113 84 91 1.0 4.0 0.00 0.00 0.00 71 1014.8
20260906141603 82 177 2.0 4.0 0.00 0.00 0.00 74 1014.9
20260906134609 81 72 2.0 4.0 0.00 0.00 0.00 77 1014.8
20260906133119 80 113 3.0 6.0 0.00 0.00 0.00 80 1014.7
20260906131605 79 82 2.0 4.0 0.00 0.00 0.00 80 1014.6
20260906130115 78 117 1.0 3.0 0.00 0.00 0.00 80 1014.6
20260906124603 77 77 0.0 2.0 0.00 0.00 0.00 83 1014.5
20260906123104 76 113 1.0 2.0 0.00 0.00 0.00 85 1014.4
20260906121601 75 0 0.0 0.0 0.00 0.00 0.00 86 1014.2
20260906120107 75 0 0.0 2.0 0.00 0.00 0.00 86 1014.0
20260906114603 75 0 0.0 0.0 0.00 0.00 0.00 87 1013.8
20260906113103 75 0 0.0 2.0 0.00 0.00 0.00 86 1013.8
20260906111559 75 0 0.0 1.0 0.00 0.00 0.00 87 1013.7
20260906104602 75 223 1.0 2.0 0.00 0.00 0.00 86 1013.4
20260906103101 76 0 0.0 2.0 0.00 0.00 0.00 85 1013.3
20260906101600 76 0 0.0 0.0 0.00 0.00 0.00 84 1013.4
20260906100105 76 0 0.0 2.0 0.00 0.00 0.00 83 1013.2
20260906094609 76 0 0.0 2.0 0.00 0.00 0.00 83 1013.1
20260906093118 77 186 0.0 2.0 0.00 0.00 0.00 82 1013.0
20260906091603 78 0 0.0 2.0 0.00 0.00 0.00 79 1013.0
20260906090137 79 0 0.0 2.0 0.00 0.00 0.00 78 1012.9
20260906084625 78 162 1.0 2.0 0.00 0.00 0.00 79 1012.7
20260906083103 78 218 0.0 2.0 0.00 0.00 0.00 78 1012.8
20260906081603 79 294 0.0 3.0 0.00 0.00 0.00 78 1012.8
20260906080108 80 181 2.0 5.0 0.00 0.00 0.00 75 1013.0
20260906074603 80 161 1.0 5.0 0.00 0.00 0.00 75 1013.2
20260906073101 81 111 3.0 6.0 0.00 0.00 0.00 74 1013.1
20260906071603 81 171 3.0 7.0 0.00 0.00 0.00 74 1013.0
20260906070105 81 113 3.0 6.0 0.00 0.00 0.00 73 1013.2
20260906064602 82 106 2.0 6.0 0.00 0.00 0.00 73 1013.4
20260906063104 82 142 2.0 4.0 0.00 0.00 0.00 73 1013.5
20260906061607 82 139 1.0 4.0 0.00 0.00 0.00 72 1013.5
20260906054606 82 171 0.0 2.0 0.00 0.00 0.00 72 1013.4
20260906053119 82 167 1.0 3.0 0.00 0.00 0.00 71 1013.4
20260906051603 83 162 1.0 4.0 0.00 0.00 0.00 71 1013.5
20260906050106 83 171 1.0 5.0 0.00 0.00 0.00 68 1013.5
20260906044621 84 168 1.0 4.0 0.00 0.00 0.00 68 1013.4
20260906043105 84 0 1.0 4.0 0.00 0.00 0.00 69 1013.3
20260906041604 84 125 1.0 4.0 0.00 0.00 0.00 69 1013.2
20260906040108 85 165 1.0 6.0 0.00 0.00 0.00 69 1013.1
20260906034608 85 122 2.0 7.0 0.00 0.00 0.00 67 1013.2
20260906033105 86 123 4.0 9.0 0.00 0.00 0.00 66 1013.3
20260906031607 86 133 4.0 9.0 0.00 0.00 0.00 65 1013.3
20260906030107 87 117 4.0 10.0 0.00 0.00 0.00 64 1013.2
20260906024624 87 126 6.0 10.0 0.00 0.00 0.00 63 1013.0
20260906023106 87 110 6.0 10.0 0.00 0.00 0.00 60 1012.7
20260906021605 88 130 7.0 11.0 0.00 0.00 0.00 59 1012.6
20260906020106 89 101 9.0 14.0 0.00 0.00 0.00 55 1012.4
20260906014606 90 92 9.0 17.0 0.00 0.00 0.00 52 1012.1
20260906013106 92 108 4.0 9.0 0.00 0.00 0.00 49 1011.6
20260906011604 92 140 5.0 8.0 0.00 0.00 0.00 47 1011.4
20260906010132 93 121 6.0 12.0 0.00 0.00 0.00 46 1011.2
20260906004608 94 117 6.0 13.0 0.00 0.00 0.00 45 1011.4
20260906003107 95 112 3.0 9.0 0.00 0.00 0.00 42 1011.3
20260906001615 95 119 4.0 7.0 0.00 0.00 0.00 42 1011.2
20260906000104 96 126 2.0 8.0 0.00 0.00 0.00 41 1011.1
20260905234608 96 83 5.0 9.0 0.00 0.00 0.00 41 1011.1
20260905233106 96 122 6.0 10.0 0.00 0.00 0.00 40 1011.0
20260905231604 97 65 6.0 8.0 0.00 0.00 0.00 38 1011.0